When you browse on this site, cookies collect data to enhance your experience and personalize the content and advertising you see.
Visit our Privacy Policy to learn more. By continuing to use the site, you agree to this use of cookies and data.
  • In Sweden
  • List of Countries
  • For 7 days
  • Water Temperature
  • Weather Map
  • Weather Widgets
  • user-avatar
    Login

    Hourly Weather Bhubaneswar

    Today, 3 April, Friday

    Time Temperature Precipitation Wind Pressure Humidity
    00:00 +30°C° 0 mm 4 mps 754 mmHg 70%
    01:00 +29°C° 0 mm 4 mps 753 mmHg 72%
    02:00 +29°C° 0 mm 3 mps 753 mmHg 73%
    03:00 +28°C° 0 mm 3 mps 752 mmHg 75%
    04:00 +28°C° 0 mm 3 mps 753 mmHg 77%
    05:00 +28°C° 0 mm 2 mps 753 mmHg 79%
    06:00 +27°C° 0 mm 2 mps 753 mmHg 83%
    07:00 +30°C° 0 mm 2 mps 754 mmHg 71%
    08:00 +32°C° 0 mm 2 mps 755 mmHg 60%
    09:00 +35°C° 0 mm 2 mps 755 mmHg 49%
    10:00 +36°C° 0 mm 1 mps 755 mmHg 40%
    11:00 +40°C° 0 mm 1 mps 755 mmHg 32%
    12:00 +42°C° 0 mm 1 mps 755 mmHg 24%
    13:00 +42°C° 0 mm 1 mps 754 mmHg 23%
    14:00 +42°C° 0 mm 2 mps 753 mmHg 22%
    15:00 +43°C° 0 mm 3 mps 753 mmHg 20%
    16:00 +41°C° 0 mm 4 mps 752 mmHg 30%
    17:00 +37°C° 0 mm 5 mps 752 mmHg 40%
    18:00 +35°C° 0 mm 7 mps 752 mmHg 50%
    19:00 +34°C° 0 mm 6 mps 753 mmHg 55%
    20:00 +32°C° 0 mm 6 mps 754 mmHg 61%
    21:00 +30°C° 0 mm 5 mps 754 mmHg 66%
    22:00 +30°C° 0 mm 5 mps 754 mmHg 69%
    23:00 +30°C° 0 mm 5 mps 755 mmHg 71%

    Tomorrow, 4 April, Saturday

    Time Temperature Precipitation Wind Pressure Humidity
    00:00 +30°C° 0 mm 5 mps 755 mmHg 73%
    01:00 +29°C° 0 mm 5 mps 754 mmHg 74%
    02:00 +29°C° 0 mm 5 mps 754 mmHg 74%
    03:00 +29°C° 0 mm 5 mps 754 mmHg 75%
    04:00 +29°C° 0 mm 4 mps 754 mmHg 77%
    05:00 +28°C° 0 mm 3 mps 754 mmHg 79%
    06:00 +28°C° 0 mm 2 mps 754 mmHg 81%
    07:00 +30°C° 0 mm 3 mps 755 mmHg 71%
    08:00 +33°C° 0 mm 3 mps 756 mmHg 62%
    09:00 +35°C° 0 mm 3 mps 756 mmHg 53%
    10:00 +37°C° 0 mm 2 mps 756 mmHg 45%
    11:00 +39°C° 0 mm 2 mps 756 mmHg 36%
    12:00 +41°C° 0 mm 2 mps 756 mmHg 28%
    13:00 +42°C° 0 mm 3 mps 755 mmHg 28%
    14:00 +42°C° 0 mm 4 mps 754 mmHg 27%
    15:00 +42°C° 0 mm 5 mps 753 mmHg 26%
    16:00 +40°C° 0 mm 6 mps 753 mmHg 34%
    17:00 +38°C° 0 mm 6 mps 753 mmHg 42%
    18:00 +34°C° 0 mm 7 mps 753 mmHg 49%
    19:00 +33°C° 0 mm 6 mps 754 mmHg 55%
    20:00 +32°C° 0 mm 6 mps 754 mmHg 60%
    21:00 +30°C° 0 mm 6 mps 755 mmHg 65%
    22:00 +30°C° 0 mm 5 mps 755 mmHg 68%
    23:00 +29°C° 0 mm 5 mps 755 mmHg 71%

    Day after tomorrow, 5 April, Sunday

    Time Temperature Precipitation Wind Pressure Humidity
    00:00 +29°C° 0 mm 4 mps 755 mmHg 73%
    01:00 +29°C° 0 mm 4 mps 754 mmHg 74%
    02:00 +29°C° 0 mm 4 mps 754 mmHg 75%
    03:00 +28°C° 0 mm 4 mps 754 mmHg 75%
    04:00 +28°C° 0 mm 4 mps 754 mmHg 76%
    05:00 +28°C° 0 mm 4 mps 754 mmHg 76%
    06:00 +28°C° 0 mm 4 mps 755 mmHg 77%
    07:00 +30°C° 0 mm 4 mps 755 mmHg 68%
    08:00 +33°C° 0 mm 5 mps 756 mmHg 60%
    09:00 +35°C° 0 mm 5 mps 756 mmHg 51%
    10:00 +37°C° 0 mm 4 mps 756 mmHg 44%
    11:00 +40°C° 0 mm 4 mps 756 mmHg 36%
    12:00 +42°C° 0 mm 3 mps 756 mmHg 28%
    13:00 +42°C° 0 mm 4 mps 755 mmHg 27%
    14:00 +43°C° 0 mm 4 mps 754 mmHg 26%
    15:00 +43°C° 0 mm 5 mps 753 mmHg 25%
    16:00 +41°C° 0 mm 5 mps 752 mmHg 32%
    17:00 +38°C° 0 mm 6 mps 752 mmHg 39%
    18:00 +35°C° 0 mm 6 mps 752 mmHg 47%
    19:00 +34°C° 0 mm 5 mps 753 mmHg 51%
    20:00 +33°C° 0 mm 5 mps 754 mmHg 55%
    21:00 +32°C° 0 mm 4 mps 754 mmHg 59%
    22:00 +30°C° 0 mm 4 mps 754 mmHg 60%
    23:00 +30°C° 0 mm 3 mps 754 mmHg 62%

    6 April, Monday

    Time Temperature Precipitation Wind Pressure Humidity
    00:00 +30°C° 0 mm 3 mps 754 mmHg 63%
    01:00 +30°C° 0 mm 3 mps 754 mmHg 63%
    02:00 +30°C° 0 mm 3 mps 753 mmHg 64%
    03:00 +29°C° 0 mm 3 mps 753 mmHg 65%
    04:00 +29°C° 0 mm 3 mps 753 mmHg 67%
    05:00 +29°C° 0 mm 3 mps 753 mmHg 69%
    06:00 +28°C° 0 mm 3 mps 753 mmHg 71%
    07:00 +31°C° 0 mm 2 mps 754 mmHg 61%
    08:00 +34°C° 0 mm 2 mps 755 mmHg 50%
    09:00 +37°C° 0 mm 2 mps 755 mmHg 40%
    10:00 +39°C° 0 mm 2 mps 755 mmHg 32%
    11:00 +41°C° 0 mm 2 mps 755 mmHg 25%
    12:00 +44°C° 0 mm 3 mps 754 mmHg 18%
    13:00 +44°C° 0 mm 3 mps 753 mmHg 17%
    14:00 +44°C° 0 mm 3 mps 752 mmHg 17%
    15:00 +45°C° 0 mm 3 mps 751 mmHg 17%
    16:00 +43°C° 0 mm 4 mps 751 mmHg 24%
    17:00 +40°C° 0 mm 5 mps 751 mmHg 31%
    18:00 +38°C° 0 mm 6 mps 750 mmHg 38%
    19:00 +35°C° 0 mm 6 mps 751 mmHg 44%
    20:00 +34°C° 0 mm 6 mps 752 mmHg 51%
    21:00 +32°C° 0 mm 6 mps 753 mmHg 58%
    22:00 +32°C° 0 mm 5 mps 753 mmHg 60%
    23:00 +32°C° 0 mm 4 mps 752 mmHg 63%

    7 April, Tuesday

    Time Temperature Precipitation Wind Pressure Humidity
    00:00 +30°C° 0 mm 4 mps 752 mmHg 65%
    01:00 +30°C° 0 mm 4 mps 752 mmHg 67%
    02:00 +30°C° 0 mm 4 mps 752 mmHg 69%
    03:00 +29°C° 0 mm 4 mps 751 mmHg 72%
    04:00 +29°C° 0 mm 4 mps 751 mmHg 75%
    05:00 +29°C° 0 mm 4 mps 752 mmHg 78%
    06:00 +28°C° 0 mm 3 mps 752 mmHg 81%
    07:00 +30°C° 0 mm 4 mps 752 mmHg 72%
    08:00 +34°C° 0 mm 4 mps 753 mmHg 63%
    09:00 +36°C° 0 mm 4 mps 754 mmHg 54%
    10:00 +38°C° 0 mm 4 mps 754 mmHg 47%
    11:00 +41°C° 0 mm 5 mps 753 mmHg 39%
    12:00 +42°C° 0 mm 5 mps 753 mmHg 32%
    13:00 +42°C° 0 mm 5 mps 752 mmHg 33%
    14:00 +41°C° 0 mm 6 mps 751 mmHg 35%
    15:00 +41°C° 0 mm 6 mps 751 mmHg 36%
    16:00 +39°C° 0.6 mm 6 mps 750 mmHg 40%
    17:00 +38°C° 0.6 mm 6 mps 750 mmHg 44%
    18:00 +35°C° 0.6 mm 7 mps 750 mmHg 48%
    19:00 +34°C° 0 mm 6 mps 751 mmHg 52%
    20:00 +33°C° 0 mm 5 mps 751 mmHg 55%
    21:00 +32°C° 0 mm 4 mps 752 mmHg 59%
    22:00 +32°C° 0 mm 4 mps 752 mmHg 65%
    23:00 +30°C° 0 mm 5 mps 752 mmHg 71%

    8 April, Wednesday

    Time Temperature Precipitation Wind Pressure Humidity
    00:00 +30°C° 0 mm 6 mps 752 mmHg 76%
    01:00 +29°C° 0 mm 5 mps 752 mmHg 77%
    02:00 +29°C° 0 mm 5 mps 751 mmHg 78%
    03:00 +29°C° 0 mm 5 mps 751 mmHg 80%
    04:00 +29°C° 0 mm 4 mps 751 mmHg 79%
    05:00 +28°C° 0 mm 3 mps 751 mmHg 79%
    06:00 +28°C° 0 mm 2 mps 752 mmHg 78%
    07:00 +30°C° 0 mm 2 mps 752 mmHg 68%
    08:00 +32°C° 0 mm 2 mps 753 mmHg 58%
    09:00 +35°C° 0 mm 2 mps 754 mmHg 48%
    10:00 +38°C° 0 mm 3 mps 753 mmHg 39%
    11:00 +40°C° 0 mm 3 mps 753 mmHg 31%
    12:00 +43°C° 0 mm 4 mps 753 mmHg 23%
    13:00 +42°C° 0.1 mm 5 mps 752 mmHg 26%
    14:00 +40°C° 0.1 mm 6 mps 751 mmHg 29%
    15:00 +38°C° 0.1 mm 7 mps 750 mmHg 31%
    16:00 +38°C° 0.1 mm 7 mps 750 mmHg 36%
    17:00 +36°C° 0.1 mm 6 mps 750 mmHg 41%
    18:00 +35°C° 0.1 mm 6 mps 750 mmHg 46%
    19:00 +35°C° 0 mm 5 mps 751 mmHg 46%
    20:00 +34°C° 0 mm 5 mps 752 mmHg 47%
    21:00 +33°C° 0 mm 4 mps 752 mmHg 48%
    22:00 +31°C° 0 mm 3 mps 752 mmHg 49%
    23:00 +31°C° 0 mm 2 mps 752 mmHg 49%
    Show more